Regional Weather Roundup
Issued by NWS

Home | Current Version | Previous Version | Text Only | Print | Product List | Glossary Off
Versions: 1 2 3 4 5 6 7 8 9 10 11 12 13 14 15 16 17 18 19 20 21 22 23 24 25 26 27 28 29 30 31 32 33 34 35 36 37 38 39 40 41 42 43 44 45 46 47 48 49 50

000
ASUS45 KBOU 270707
RWRCO

WEATHER ROUNDUP FOR COLORADO
NATIONAL WEATHER SERVICE DENVER/BOULDER CO
1200 AM MST TUE JAN 27 2015

NOTE: "FAIR" INDICATES FEW OR NO CLOUDS BELOW 12000 FEET WITH NO
SIGNIFICANT WEATHER AND/OR OBSTRUCTIONS TO VISIBILITY.

COZ001>005-013-030-031-270800-
...NORTHWEST COLORADO...

CITY           SKY/WX    TMP DP  RH WIND       PRES   REMARKS
CRAIG            N/A     16  13  88 SW5       30.35R WCI   9
HAYDEN         CLEAR     30  19  64 E17       30.32S WCI  18
MEEKER         CLEAR     22  17  81 CALM      30.36R
MOUNT WERNER   NOT AVBL
STEAMBOAT SPGS CLEAR     25  22  87 NW3       30.35F
WALDEN         CLEAR     19  14  79 SE8       30.39S WCI   9
$$

COZ006>008-011-270800-
...WEST CENTRAL VALLEYS...

CITY           SKY/WX    TMP DP  RH WIND       PRES   REMARKS
GRAND JUNCTION CLEAR     32  26  78 E8        30.33R WCI  25
MONTROSE       PTCLDY    28  22  78 SE6       30.37R WCI  22
EAGLE          PTCLDY    25  21  86 CALM      30.44S
RIFLE          CLEAR     30  24  78 E3        30.37R
DELTA          PTCLDY    34  25  69 CALM      30.36S
NUCLA          PTCLDY    36  27  69 E7        30.38R
$$

COZ017>023-064>068-270800-
...SOUTHWEST COLORADO...

CITY           SKY/WX    TMP DP  RH WIND       PRES   REMARKS
DURANGO        PTCLDY    31  25  78 N5        30.38F WCI  26
CORTEZ         CLEAR     32  24  72 NE6       30.34F WCI  26
PAGOSA SPRINGS PTCLDY    28  22  77 CALM      30.43S
TELLURIDE      PTCLDY    37  19  49 E5        30.45S
WOLF CREEK PAS NOT AVBL
$$

COZ009-010-012-014-032>034-037-058>063-270800-
...CENTRAL COLORADO...

CITY           SKY/WX    TMP DP  RH WIND       PRES   REMARKS
ASPEN          PTCLDY    26  17  68 CALM      30.38S
BUENA VISTA    CLEAR     32  20  61 CALM      30.42S
COPPER MTN     CLEAR     37  10  32 S21       30.56S
BERTHOUD PASS  FAIR      32  27  80 W15       30.58F WCI  22
COTTONWOOD PAS CLEAR     45   7  21 NW3       30.47F
GUNNISON       PTCLDY     3  -2  78 CALM      30.50F
KREMMLING      CLEAR     10   7  85 CALM      30.47S
LEADVILLE      PTCLDY    21  11  65 CALM      30.46F
MONARCH PASS   PTCLDY    32  12  43 SW21      30.66S WCI  20
SALIDA         CLEAR     36  21  55 NW7       30.48F
SUNLIGHT       CLEAR     37  16  41 CALM      30.47F
WILKERSON PASS PTCLDY    34  12  40 SW7       30.55S WCI  28
$$

COZ069>075-270800-
...SAN LUIS VALLEY/SANGRE DE CRISTO MOUNTAINS...

CITY           SKY/WX    TMP DP  RH WIND       PRES   REMARKS
ALAMOSA        MOCLDY    13   9  84 CALM      30.43S
LA VETA PASS   NOT AVBL
SAGUACHE       PTCLDY    27  19  74 NW12      30.44F WCI  16
$$

COZ035-036-038>040-270800-
...NORTHERN COLORADO FRONT RANGE...

CITY           SKY/WX    TMP DP  RH WIND       PRES   REMARKS
DENVER INTL AP CLEAR     48  26  42 SW17      30.21S
DMNS CITY PARK   N/A     50  21  32 S8G17     30.20F
AURORA         CLEAR     45  26  47 S16       30.22F
FRONT RANGE AP NOT AVBL
ERIE MUNI ARPT CLEAR     32  25  77 SW3       30.20S
BOULDER MUN AP CLEAR     45  23  42 CALM      30.20S
CENTENNIAL     CLEAR     47  24  40 S7        30.24S
BROOMFIELD     CLEAR     52  21  30 CALM      30.22S
FORT COLLINS   CLEAR     43  21  42 N6        30.20S
LONGMONT       CLEAR     37  25  60 CALM      30.21S
$$

COZ041-046-047-076>085-087-088-270800-
...PIKES PEAK/PALMER DIVIDE AND SOUTHERN FOOTHILLS...

CITY           SKY/WX    TMP DP  RH WIND       PRES   REMARKS
COLO. SPRINGS  CLEAR     35  25  66 NE8       30.29F WCI  29
A. F. ACADEMY  CLEAR     33  24  69 N12       30.30F WCI  24
ELLICOTT       CLEAR    N/A N/A N/A CALM      30.28F
FALCON         CLEAR     36  23  59 W5        30.32F
FORT CARSON    CLEAR     41  24  50 NW12      30.26S
LIMON          CLEAR     28  24  85 N8        30.23F WCI  20
MONUMENT HILL  CLEAR     41  23  48 SW12      30.30F
TRINIDAD       CLEAR     42  25  50 SW18      30.29F
$$

COZ042>045-048>051-090-091-270800-
...NORTHEAST COLORADO...

CITY           SKY/WX    TMP DP  RH WIND       PRES   REMARKS
GREELEY ARPT   CLEAR     30  21  69 N6        30.17S WCI  24
AKRON          CLEAR     46  28  49 SW15      30.16S
BURLINGTON     CLEAR     39  30  70 W12       30.16F
WRAY           PTCLDY    34  30  83 SW3       30.12F
STERLING       CLEAR     32  32 100 SW6       30.14F WCI  26
HOLYOKE        PTCLDY    37  32  81 W8        30.11S
FORT MORGAN    CLEAR     32  28  85 W9        30.17F WCI  25
$$

COZ086-089-092>099-270800-
...SOUTHEAST COLORADO...

CITY           SKY/WX    TMP DP  RH WIND       PRES   REMARKS
PUEBLO         CLEAR     34  28  79 W6        30.24S WCI  29
LA JUNTA       CLEAR     42  32  67 W6        30.22R
LAMAR          PTCLDY    40  33  76 SW8       30.18S
SPRINGFIELD      N/A     39  29  67 NW3       30.21F
$$



USA.gov is the U.S. government's official web portal to all federal, state and local government web resources and services.